Location: Beuvrequen
(50.8014°N, 1.6652°E)
Time: 15:44:33
(UTC+00:00)

Cosmos 1844 - Pass Details

Date: 07 June 2022
Orbit: 821 x 869 km, 70.9° (Epoch: 29 June)

Event Time Altitude Azimuth Distance (km) Brightness Sun altitude
Rises 21:36:13 0° 320° (NW) 3,466 9.0 -10.5°
Reaches altitude 10° 21:39:18 10° 305° (NW) 2,522 7.3 -10.8°
Maximum altitude 21:43:22 20° 260° (W) 1,897 5.8 -11.1°
Drops below altitude 10° 21:47:24 10° 215° (SW) 2,498 5.9 -11.4°
Enters shadow 21:50:04 - 201° (SSW) 3,293 6.4 -11.6°
